Overview Statistics Trail Chart Weather Telemetry Raw packets
 

This is the latest recevied weather packets stored in our database for station/object N7IGG. If no packets are shown the sender has not sent any weather packets the latest 10 day(s).

<< 73 74 75 76 77 78 79 >>
Time Temp. Humidity Pressure Rain* Wind** Luminosity Snow
1777650633 11.67° C 91% 1017.8 hPa 0 mm - 69 W/m² -
1777650330 11.67° C 91% 1017.6 hPa 0 mm - 72 W/m² -
1777650026 11.67° C 92% 1017.5 hPa 0 mm - 71 W/m² -
1777649725 11.11° C 92% 1017.5 hPa 0 mm - 75 W/m² -
1777649420 11.11° C 92% 1017.7 hPa 0 mm - 61 W/m² -
1777649117 11.11° C 92% 1017.7 hPa 0 mm - 111 W/m² -
1777648815 11.11° C 92% 1017.5 hPa 0 mm - 135 W/m² -
1777648512 11.11° C 92% 1017.6 hPa 0 mm - 62 W/m² -
1777648208 10.56° C 92% 1017.6 hPa 0 mm - 65 W/m² -
1777647903 10.56° C 92% 1017.5 hPa 0 mm - 48 W/m² -
1777647601 10.56° C 92% 1017.6 hPa 0 mm - 44 W/m² -
1777647296 10.56° C 92% 1017.5 hPa 0 mm - 43 W/m² -
1777646995 10.56° C 92% 1017.5 hPa 0 mm - 39 W/m² -
1777646690 10.56° C 92% 1017.4 hPa 0 mm - 39 W/m² -
1777646386 10.56° C 92% 1017.4 hPa 0 mm - 37 W/m² -
1777646083 10.56° C 92% 1017.4 hPa 0 mm - 34 W/m² -
1777645779 10.56° C 92% 1017.3 hPa 0 mm - 31 W/m² -
1777645477 10.56° C 92% 1017.4 hPa 0 mm - 28 W/m² -
1777645172 10.56° C 92% 1017.2 hPa 0 mm - 26 W/m² -
1777644869 10° C 92% 1017.2 hPa 0 mm - 23 W/m² -
1777644566 10° C 92% 1017.1 hPa 0 mm - 22 W/m² -
1777644262 10° C 92% 1017.1 hPa 0 mm - 21 W/m² -
1777643959 10° C 92% 1017 hPa 0 mm - 18 W/m² -
1777643656 10° C 91% 1017 hPa 0 mm - 17 W/m² -
1777643353 10° C 91% 1017 hPa 0 mm - 16 W/m² -

* Rain latest hour (hover to see other rain measurements)
** Current wind speed in m/s (hover to see current wind gust speed)